This is the latest recevied weather packets stored in our database for station/object KC3AWA. If no packets are shown the sender has not sent any weather packets the latest 10 day(s).
| Time | Temp. | Humidity | Pressure | Rain* | Wind** | Luminosity | Snow |
|---|---|---|---|---|---|---|---|
| 1777660923 | 5° C | 94% | 1013 hPa | 3.05 mm | - | 104 W/m² | - |
| 1777660619 | 5° C | 94% | 1012.9 hPa | 1.27 mm | - | 93 W/m² | - |
| 1777660316 | 5° C | 94% | 1012.6 hPa | 1.78 mm | - | 75 W/m² | - |
| 1777660013 | 5.56° C | 93% | 1012.7 hPa | 1.78 mm | - | 108 W/m² | - |
| 1777659709 | 5° C | 95% | 1012.6 hPa | 1.78 mm | - | 113 W/m² | - |
| 1777659406 | 5.56° C | 93% | 1012.6 hPa | 3.05 mm | - | 184 W/m² | - |
| 1777659103 | 5.56° C | 94% | 1012.8 hPa | 3.05 mm | - | 124 W/m² | - |
| 1777658802 | 5° C | 94% | 1012.7 hPa | 1.78 mm | - | 153 W/m² | - |
| 1777658497 | 5.56° C | 94% | 1012.7 hPa | 1.27 mm | - | 132 W/m² | - |
| 1777658194 | 5.56° C | 95% | 1012.6 hPa | 1.27 mm | - | 170 W/m² | - |
| 1777657892 | 5.56° C | 95% | 1012.7 hPa | 1.78 mm | - | 187 W/m² | - |
| 1777657588 | 5° C | 95% | 1012.7 hPa | 3.05 mm | - | 134 W/m² | - |
| 1777657286 | 5° C | 94% | 1012.7 hPa | 4.32 mm | - | 130 W/m² | - |
| 1777656983 | 5° C | 94% | 1012.7 hPa | 4.83 mm | - | 119 W/m² | - |
| 1777656680 | 5° C | 94% | 1012.7 hPa | 3.05 mm | - | 111 W/m² | - |
| 1777656375 | 5° C | 94% | 1013 hPa | 3.05 mm | - | 104 W/m² | - |
| 1777656070 | 5° C | 94% | 1013.1 hPa | 1.78 mm | - | 100 W/m² | - |
| 1777655767 | 5° C | 93% | 1013 hPa | 1.27 mm | - | 120 W/m² | - |
| 1777655464 | 5° C | 93% | 1012.8 hPa | 3.05 mm | - | 147 W/m² | - |
| 1777655161 | 5° C | 94% | 1013 hPa | 3.56 mm | - | 127 W/m² | - |
| 1777654858 | 5.56° C | 94% | 1013.1 hPa | 3.05 mm | - | 97 W/m² | - |
| 1777654555 | 5.56° C | 95% | 1013.3 hPa | 3.05 mm | - | 105 W/m² | - |
| 1777654252 | 5.56° C | 93% | 1013.2 hPa | 3.05 mm | - | 123 W/m² | - |
| 1777653950 | 5.56° C | 94% | 1012.9 hPa | 1.27 mm | - | 126 W/m² | - |
| 1777653647 | 5.56° C | 94% | 1013.1 hPa | 3.05 mm | - | 139 W/m² | - |
* Rain latest hour (hover to see other rain measurements)
** Current wind speed in m/s (hover to see current wind gust speed)